www.pogodaiklimat.ru

ПОГОДА в Руби, AK

  • Прогноз погоды в Руби
  • Монитор погоды в Руби
  • Климат в Руби

АРХИВ ПОГОДЫ в Руби

Время (UTC), дата Ветер
(напр.,м/с)
 
Видим.   Явления Облачность Т
(С)
Тd
(С)
f
(%)
Тe
(С)
Тes
(С)
Комфортность

P
(гПа)

Po
(гПа)
Тmin
(С)
Tmax
(С)
R
(мм)
SD
(см)
00:56 26.05 В  16 км    8/0 2100 м
[средняя] 
+19.4  +5.6  40  +20  +23    1010.5  984.4         
01:56 26.05 В  16 км    8/0 2100 м
[средняя] 
+19.4  +6.1  42  +20  +21    1009.9  983.8         
02:56 26.05 Ю  6
{9} 
16 км  дождь  10/10 1800 м  +12.8  +8.9  77  +10  +10    1011.0  984.4         
03:56 26.05 З  16 км  слабый дождь  10/8 1650 м
[средняя] 
+11.1  +8.3  83  +9  +9    1011.3  984.8         
04:56 26.05 З  16 км  слабый дождь  10/8 1800 м
[средняя] 
+10.0  +9.4  96  +8  +8    1010.6  984.1  +10.0  +20.0  0.5   
05:56 26.05   16 км  слабый дождь  10/0 2100 м
[средняя] 
+10.6  +8.9  89  +10  +10    1010.6  984.1         
06:56 26.05 Ю  16 км    10/5 1950 м
[средняя] 
+10.6  +7.8  83  +9  +9    1011.3  985.1         
07:56 26.05 нст  16 км    8/0 3300 м
[средняя] 
+10.0  +7.2  83  +8  +8    1010.9  984.4         
08:56 26.05 З  16 км    8/0 2850 м
[средняя] 
+9.4  +7.2  86  +7  +7    1011.1  984.8         
09:56 26.05 нст  16 км    10/0 2700 м
[средняя] 
+8.9  +6.7  86  +8  +8    1011.0  984.8         
10:56 26.05 З  16 км    ясно  +8.3  +6.7  90  +6  +6    1010.6  984.1  +8.3  +11.1     
11:56 26.05   16 км    5/0 3300 м
[средняя] 
+8.3  +6.7  90  +7  +7    1010.6  984.1         
12:56 26.05   16 км    10/10 1800 м  +7.8  +6.7  93  +7  +7    1010.8  984.4         
13:56 26.05   16 км    10/8 1410 м
[средняя] 
+8.3  +6.7  90  +7  +7    1011.0  984.8         
14:45 26.05 ЮЗ  16 км  слабый дождь  10/8 810 м
[средняя] 
+9.0  +6.0  81  +7  +7      985.1         
14:56 26.05 нст  16 км  слабый дождь  10/8 810 м
[средняя] 
+8.9  +6.1  83  +8  +8    1011.6  984.8         
15:06 26.05 З  16 км  слабый дождь  10/8 810 м
[средняя] 
+9.0  +6.0  81  +8  +8      984.8         
15:56 26.05   16 км  слабый дождь  10/5 1470 м
[средняя] 
+8.3  +6.7  90  +7  +8    1011.4  984.8         
16:56 26.05   16 км    10/5 1320 м
[средняя] 
+8.9  +6.7  86  +8  +9    1011.5  984.8  +7.2  +8.9  0.3   
17:56 26.05   16 км    10/5 1950 м
[средняя] 
+10.6  +6.1  74  +10  +11    1011.0  984.1         
18:56 26.05   16 км    10/8 1410 м
[средняя] 
+12.8  +6.7  66  +12  +13    1010.5  983.8         
19:56 26.05 СВ  16 км    5/5 930 м  +11.7  +6.7  71  +10  +14    1009.9  983.1         
20:56 26.05 В  16 км    10/10 1140 м  +12.2  +6.7  69  +10  +10    1009.6  982.8         
21:56 26.05 ЮВ  16 км    н/о  +13.3  +6.7  64  +12  +12    1008.9  982.5         
22:56 26.05 СВ  16 км    10/10 1650 м  +13.9  +6.1  59  +13  +13    1007.9  981.1  +8.9  +13.9     
23:56 26.05 В  16 км    8/8 1050 м  +14.4  +6.1  57  +13  +15    1006.9  980.5         
00:56 27.05 СВ  16 км    2/2 1950 м  +14.4  +6.1  57  +13  +18    1005.9  979.5         
01:56 27.05 СВ  16 км    2/0 3600 м
[средняя] 
+14.4  +5.6  55  +13  +17    1005.1  978.5         
02:56 27.05 В  16 км    8/0 3000 м
[средняя] 
+13.9  +5.6  57  +13  +15    1004.5  978.2         
03:56 27.05 ЮВ  16 км  слабый дождь  10/8 1650 м
[средняя] 
+12.8  +6.7  66  +12  +12    1004.2  977.5         
04:56 27.05 ЮЗ  16 км  слабый дождь  10/10 1260 м  +11.1  +8.9  86  +9  +9    1004.0  977.5  +11.1  +14.4  1.0   
05:56 27.05 Ю  16 км  слабый дождь  10/10 1500 м  +10.6  +8.9  89  +9  +9    1003.5  977.2         
06:56 27.05   16 км  слабый дождь  10/10 1290 м  +10.0  +8.9  93  +9  +9    1003.2  976.8         
07:18 27.05 З  16 км  слабый дождь  10/10 780 м  +9.0  +9.0  100  +7  +7      976.8         
07:32 27.05   11 км  дождь  10/10 780 м  +9.0  +9.0  100  +8  +8      976.8         
07:56 27.05   13 км  дождь  10/10 1020 м  +9.4  +8.9  97  +8  +8    1003.2  976.8      3.3   
08:53 27.05 ЮВ  16 км    10/5 240 м
[средняя] 
+9.0  +9.0  100  +7  +7      976.8         
08:56 27.05 В  16 км    10/5 240 м
[средняя] 
+9.4  +8.3  93  +8  +8    1003.3  976.8         
09:01 27.05   3 км  дымка  10/2 150 м
[средняя] 
+9.0  +8.0  93  +8  +8      976.8         
09:07 27.05 СВ  1 км  дымка  10/2 30 м
[средняя] 
+9.0  +8.0  93  +8  +8      976.8         
09:14 27.05 СВ  400 м  туман  10/5 30 м
[средняя] 
+9.0  +8.0  93  +8  +8      976.8         
09:21 27.05 СВ  400 м  туман  10/8 30 м
[средняя] 
+9.0  +8.0  93  +7  +7      976.8         
09:36 27.05   1 км  дымка  10/8 30 м
[средняя] 
+9.0  +8.0  93  +8  +8      976.8         
09:39 27.05   4 км  дымка  10/8 30 м
[средняя] 
+9.0  +8.0  93  +8  +8      976.8         
09:43 27.05   16 км    10/5 30 м
[средняя] 
+9.0  +8.0  93  +8  +8      976.8         
09:56 27.05 В  3 км  дымка  10/2 30 м
[средняя] 
+8.9  +8.3  96  +7  +7    1003.6  977.2         
10:06 27.05 нст  16 км    8/2 630 м
[средняя] 
+8.0  +8.0  100  +6  +6      977.2         
10:56 27.05 ЮЗ  16 км    ясно  +8.3  +7.2  93  +7  +7    1004.2  977.8  +8.3  +11.1  4.1   

 

Местоположение метеостанции Ruby Airport: широта 64.7272 долгота -155.4697 высота над уровнем моря 199 м.

В архиве по умолчанию представлена погода в Руби за последние 1-2 суток. Обновление информации о фактической погоде в базе происходит ежечасно! Архивные данные за месяц целиком и за предыдущие месяцы Вы можете получить, выбрав интересующий диапазон дат из раскрывающегося списка и нажав кнопку "Ввод!".

Внимание! Архив погоды МЕТАР в базе сайта хранится не более 60 дней. Нет смысла пытаться выбрать более раннюю дату.

Внимание! Время в таблицах - всемирное. Для получения местного времени необходимо прибавить поправку, которая в Руби равна -9 ч.

Ветер - указаны скорость ветра в м/с и направление, откуда дует ветер: С - северный, СВ - северо-восточный, В - восточный, ЮВ - юго-восточный, Ю - южный, ЮЗ - юго-западный, З - западный, СЗ - северо-западный.
Видимость - горизонтальная дальность видимости в метрах или километрах. При видимости от 1 до 10 км при отсутствии осадков обычно наблюдается дымка, при ухудшении видимости до 1 км и менее - туман. В сухую погоду видимость может ухудшаться дымом, пылью или мглою.
Атмосферные явления - указаны явления, наблюдавшиеся в указанный момент времени.
Облачность - указаны через наклонную черту верхняя и нижняя облачность в баллах и высота нижней границы облаков в метрах. Внимание: облачность, как и прочие метеорологические величины в США измеряются автоматическими метеостанциями. Указанные значения в баллах носят условный характер и показывают процент времени, в течение которого, в среднем, лазерный луч высотомера отражался от облаков обратно.
T - Температура воздуха - температура, измеренная на высоте 2 м над землей.
Td - Температура точки росы - температура, при понижении до которой содержащийся в воздухе водяной пар достигнет насыщения.
f - Относительная влажность воздуха - влажноcть воздуха, измеренная на высоте 2 м над землей.
Te - Эффективная температура - температура, которую ощущает одетый по сезону человек в тени. Характеристика душности погоды. При расчете учитывается влияние влажности воздуха и скорости ветра на теплоощущения человека.
Tes - Эффективная температура на солнце - температура, которую ощущает человек, с поправкой на солнечный нагрев. Характеристика знойности погоды. Зависит от высоты солнца над горизонтом, облачности и скорости ветра. Ночью, в пасмурную погоду, а также при ветре 12 м/с и более поправка равна нулю.
P - Атмосферное давление - приведенное к уровню моря атмосферное давление.
Po - Атмосферное давление - измеренное на уровне метеостанции атмосферное давление.
Tmin - Минимальная температура - минимум температуры воздуха на высоте 2 м над землей.
Tmax - Максимальная температура - максимум температуры воздуха на высоте 2 м над землей.
R - Количество осадков - Количество выпавших осадков за 3 или 6 часов, мм.
SD - Снежный покров - Высота снежного покрова, см.